Wind_Speed
22 14 20 23 22 19 13 12 14 10 6 6 13 16 14 6 9 11 13 16 18 17 14 14 13 14 15 20 21 22 26 24 28 32 37 39 37 39 47 42 28 34 28 40
11 20 18 16 19 20 18 15 14 9 6 8 13 16 14 12 8 9 12 16 19 18 17 16 16 15 16 17 19 22 23 26 28 29 33 38 42 42 45 42 37 32 33 37
21 5 15 15 16 19 20 20 15 14 3 10 9 15 18 14 8 8 10 13 16 21 22 20 19 18 16 16 20 19 22 22 27 24 27 39 42 40 44 42 45 40 39 37
15 24 6 20 22 19 19 19 16 12 11 9 3 13 15 9 16 12 13 14 17 21 23 22 21 20 18 17 15 16 21 24 26 32 32 37 45 49 50 46 47 46 43 34
15 11 20 17 18 18 17 7 13 15 13 12 14 9 14 6 13 13 12 15 17 20 24 24 23 21 18 17 17 17 19 25 30 30 33 35 42 46 46 48 49 39 49 44
20 4 13 21 14 12 8 7 7 8 10 12 15 12 8 11 10 4 5 9 11 17 23 23 22 21 20 19 18 19 25 26 30 32 33 36 40 45 47 50 49 46 46 43
17 17 8 10 19 13 15 12 7 8 8 10 4 10 14 11 12 11 10 13 6 13 21 25 26 26 24 24 23 21 26 28 29 35 36 35 42 42 46 56 53 49 44 47
15 9 15 12 13 11 18 19 7 8 10 9 9 8 7 4 5 7 7 8 7 12 18 26 28 27 27 26 26 25 26 28 31 37 38 37 37 37 44 52 54 52 47 48
12 17 11 12 11 15 13 19 16 9 1 5 7 7 11 10 10 11 10 10 14 13 18 25 29 29 28 29 30 28 26 27 28 34 40 40 37 34 38 47 56 49 46 50
5 6 10 17 17 16 10 10 8 10 13 12 9 8 7 4 10 3 4 5 5 8 16 21 28 30 29 28 29 30 28 28 28 30 33 34 37 35 34 38 49 49 48 51
7 5 6 11 15 18 14 12 9 7 13 11 10 6 5 9 5 3 3 9 6 2 12 17 22 26 27 26 28 31 32 31 31 31 32 33 35 35 35 37 42 44 48 45
10 3 8 10 4 8 17 16 19 10 10 7 8 9 9 6 10 6 12 14 10 2 4 14 17 21 26 29 30 32 33 34 33 32 33 34 34 35 38 40 40 44 44 53
2 8 6 11 11 3 9 6 8 13 12 13 8 4 4 8 11 14 14 15 12 5 1 7 14 18 21 25 29 31 34 37 35 34 34 35 37 39 41 43 45 41 43 45
7 3 10 8 3 3 7 8 4 9 8 10 13 12 10 12 13 15 18 17 18 15 10 6 9 13 17 21 25 28 31 33 34 34 36 38 40 42 42 41 41 43 43 40
2 2 1 2 2 1 3 5 4 8 8 7 6 10 9 7 8 13 19 20 17 16 14 12 14 12 13 17 21 25 27 29 32 34 37 44 44 42 40 40 40 40 42 44
7 2 4 2 3 3 5 6 8 7 9 9 11 12 1 10 12 11 16 19 21 21 18 18 13 13 15 18 21 24 27 29 29 33 36 35 37 41 43 40 40 40 42 41
4 3 4 8 2 3 7 13 10 7 7 7 8 2 7 10 10 14 19 16 16 20 25 21 19 15 14 16 20 23 26 24 29 31 32 32 33 35 36 36 35 37 38 37
4 2 3 4 2 7 1 4 2 5 5 5 4 7 7 9 14 15 9 18 20 20 22 25 24 23 20 16 16 19 21 25 28 30 30 31 31 32 30 30 32 31 30 30
13 4 3 5 10 8 6 6 5 7 4 4 4 6 8 10 13 10 12 18 21 24 23 21 22 23 26 25 22 19 20 24 26 29 28 28 29 29 29 30 29 27 26 25
13 11 6 5 7 6 3 7 2 2 5 6 7 9 9 11 5 4 20 21 23 25 23 21 21 22 21 21 21 20 18 17 23 23 22 23 25 27 27 26 25 24 23 23
10 10 13 10 7 4 8 2 4 7 3 14 15 13 11 6 5 14 17 19 21 23 25 23 20 19 20 22 19 16 14 12 15 19 17 19 19 20 21 24 27 24 21 21
11 11 8 11 8 8 4 3 3 6 8 13 15 14 12 13 13 12 16 17 18 23 27 24 20 21 20 18 12 6 11 12 14 16 15 18 20 21 21 20 20 20 20 21
7 6 5 8 6 6 8 11 7 7 6 9 12 14 12 10 10 12 13 14 15 18 23 23 19 17 16 14 7 2 2 3 5 9 13 15 19 21 20 19 18 16 16 17
7 5 4 2 4 4 4 6 9 8 7 8 9 11 12 13 12 11 11 15 16 18 19 21 19 15 13 13 9 5 3 5 8 11 14 16 16 17 16 14 12 13 11 10
2 7 6 7 8 5 6 4 8 9 8 8 9 9 10 11 10 12 13 13 15 17 17 18 15 15 12 13 9 7 4 4 9 11 13 13 12 11 13 12 10 9 13 11
4 5 6 5 5 3 3 4 6 7 10 11 13 13 12 12 10 9 9 11 14 24 16 13 12 9 8 9 9 8 6 8 11 14 14 14 14 15 16 16 18 16 16 17
Wind_Direction
201 212 216 215 219 233 262 249 249 236 179 218 241 256 270 241 227 235 227 219 221 217 205 199 198 195 197 207 213 218 217 208 209 202 193 194 189 185 184 183 183 178 187 198
193 228 226 234 222 231 233 241 241 258 238 231 253 255 263 273 249 244 236 224 223 211 205 201 200 200 200 203 210 217 214 217 213 213 201 198 194 194 196 189 189 190 198 200
223 212 221 219 217 224 228 235 241 259 218 236 265 258 251 244 228 242 233 237 222 213 205 203 203 201 202 204 209 205 213 213 213 215 211 202 195 197 197 198 194 197 208 208
238 240 215 214 225 220 231 226 248 253 262 261 200 266 259 248 266 230 245 224 221 213 209 203 202 203 203 203 203 202 205 204 213 206 214 202 201 202 203 199 199 202 211 211
231 231 225 227 231 228 246 242 232 240 252 269 254 253 258 257 260 254 234 218 218 214 211 200 202 203 202 199 201 196 200 205 209 213 213 210 208 208 204 204 205 214 215 218
257 218 235 230 225 223 236 191 211 223 238 246 245 241 256 253 252 281 225 231 218 212 206 200 200 199 201 198 198 198 197 202 204 208 211 216 211 208 204 207 209 213 216 226
228 236 229 235 223 216 214 204 219 222 207 239 187 233 241 284 269 267 272 273 191 201 200 194 195 197 198 199 198 202 198 204 205 205 210 212 209 212 214 208 208 212 219 220
221 210 205 196 212 194 198 196 207 214 218 234 155 242 252 252 309 269 260 267 231 213 202 199 196 199 199 200 200 202 201 202 207 205 209 209 209 212 219 212 212 214 219 222
210 239 180 209 198 200 203 227 245 261 266 271 203 232 267 236 255 249 262 279 255 230 209 201 194 198 202 203 206 207 203 200 204 207 206 210 213 213 214 215 217 218 220 222
250 241 203 195 202 218 212 171 187 222 233 231 229 243 255 277 296 273 311 329 315 222 199 200 198 197 201 207 207 210 208 205 204 203 206 208 210 213 212 214 217 217 222 220
245 261 157 164 203 205 206 222 234 244 224 243 246 232 197 246 351 326 1 347 350 240 206 198 199 202 200 205 207 210 209 206 207 207 207 207 209 211 213 216 217 219 220 221
206 303 224 191 102 258 213 225 222 228 198 237 265 246 150 330 308 316 313 326 323 358 193 197 195 198 202 205 209 212 212 211 211 211 211 212 212 212 215 218 218 220 221 223
7 214 214 237 224 203 202 200 262 240 263 245 225 211 261 307 314 312 319 325 330 332 265 179 190 202 208 211 211 213 217 218 215 212 215 217 218 218 222 224 223 222 225 227
288 218 228 233 208 138 192 194 201 224 229 239 246 264 259 277 303 323 327 329 321 310 303 265 217 210 216 218 218 217 218 218 216 215 217 221 225 228 229 229 228 231 230 229
35 292 217 81 83 111 150 181 193 226 242 248 253 240 250 278 321 306 311 313 322 322 295 273 268 261 242 232 227 224 222 221 216 217 221 228 231 231 230 230 232 234 235 239
346 242 285 187 163 215 250 236 246 244 236 251 252 259 27 301 301 318 318 315 316 321 314 315 292 284 265 245 240 236 232 229 223 222 230 227 228 231 233 233 233 233 237 240
312 252 234 253 190 281 267 235 233 204 204 226 222 238 331 309 324 339 331 336 332 322 315 314 315 316 302 275 259 242 236 226 230 233 231 227 227 228 228 228 228 233 236 239
259 216 213 258 236 241 64 331 218 220 217 219 310 339 334 318 311 315 1 348 342 332 320 310 307 300 299 299 284 267 240 232 235 237 234 230 226 226 225 224 228 228 230 234
218 227 225 224 218 293 260 189 207 208 144 53 22 360 345 329 309 273 13 358 342 335 325 314 307 300 291 288 289 268 252 236 232 233 231 229 226 223 221 223 226 227 226 229
199 220 239 202 231 223 100 97 17 194 204 38 358 351 340 338 298 345 350 345 341 338 335 331 323 312 301 296 286 278 265 239 232 229 225 225 221 221 217 218 219 221 222 229
186 203 217 224 243 258 268 281 217 224 44 343 341 326 320 319 346 317 332 345 346 345 339 342 349 343 316 302 294 276 261 241 235 227 219 215 213 217 213 207 215 226 227 226
180 187 195 227 225 247 348 228 227 15 350 348 332 326 309 298 310 321 330 344 354 351 347 348 357 356 350 331 315 272 252 247 245 238 228 222 219 216 219 213 210 213 218 221
194 202 188 203 214 94 67 79 62 23 3 355 344 347 341 330 331 340 347 352 356 358 350 347 354 357 9 22 355 321 160 154 196 194 182 191 190 184 189 194 193 201 211 218
224 197 237 195 180 170 127 83 47 27 15 8 6 3 4 356 356 356 357 357 357 347 348 344 346 2 359 29 46 69 103 140 169 168 157 166 170 163 163 175 185 190 198 210
285 166 234 239 249 122 120 55 3 355 355 357 2 360 356 356 357 357 356 359 8 2 346 343 358 358 354 357 33 81 97 150 157 148 144 144 145 149 149 142 131 140 138 132
219 248 235 265 48 2 100 34 348 355 358 359 360 358 359 357 351 344 355 356 351 350 344 350 360 15 8 3 29 47 110 143 148 139 136 136 134 132 134 132 129 120 114 115
Height
1465 1464 1456 1452 1453 1453 1448 1453 1452 1444 1450 1455 1453 1449 1443 1442 1450 1450 1451 1453 1456 1459 1460 1461 1463 1464 1466 1467 1470 1473 1475 1480 1483 1485 1491 1498 1502 1508 1514 1520 1525 1529 1537 1542
1460 1455 1450 1453 1452 1455 1454 1455 1451 1446 1452 1455 1447 1444 1440 1438 1441 1443 1446 1447 1450 1454 1456 1457 1459 1462 1462 1466 1468 1470 1473 1476 1479 1484 1490 1495 1501 1507 1512 1518 1523 1530 1535 1539
1449 1447 1450 1454 1452 1455 1451 1452 1450 1452 1451 1450 1449 1446 1438 1433 1438 1440 1443 1443 1444 1447 1450 1452 1455 1457 1459 1461 1463 1468 1470 1473 1477 1483 1487 1493 1499 1506 1510 1515 1521 1526 1531 1536
1449 1446 1449 1449 1447 1447 1448 1445 1450 1453 1455 1450 1445 1447 1428 1428 1429 1429 1432 1437 1439 1441 1444 1447 1450 1453 1455 1458 1460 1464 1467 1470 1474 1477 1481 1485 1490 1496 1503 1510 1516 1522 1525 1530
1443 1444 1443 1446 1442 1441 1445 1443 1450 1450 1451 1448 1445 1447 1428 1423 1428 1422 1422 1426 1433 1436 1440 1441 1445 1449 1452 1454 1456 1459 1463 1466 1469 1473 1478 1482 1487 1493 1501 1507 1513 1518 1520 1524
1440 1440 1440 1439 1440 1442 1443 1448 1449 1449 1447 1454 1441 1438 1425 1417 1416 1416 1417 1420 1426 1430 1434 1438 1442 1446 1449 1451 1453 1455 1458 1461 1464 1468 1474 1478 1483 1488 1494 1500 1505 1511 1516 1520
1436 1435 1435 1436 1436 1440 1443 1445 1450 1455 1451 1447 1427 1434 1425 1412 1413 1414 1417 1418 1422 1426 1429 1432 1436 1440 1444 1446 1448 1451 1453 1457 1461 1465 1469 1474 1479 1483 1487 1491 1499 1505 1509 1512
1438 1438 1432 1431 1431 1434 1436 1434 1431 1449 1442 1429 1431 1435 1417 1409 1412 1413 1414 1416 1418 1422 1424 1426 1430 1435 1439 1442 1444 1446 1449 1453 1456 1460 1465 1470 1475 1478 1481 1486 1492 1496 1501 1507
1432 1425 1422 1427 1428 1428 1433 1435 1429 1435 1440 1435 1421 1420 1412 1408 1407 1408 1408 1410 1412 1414 1417 1421 1424 1428 1435 1436 1438 1442 1445 1449 1451 1454 1460 1465 1470 1473 1475 1481 1486 1491 1496 1501
1423 1427 1417 1421 1426 1426 1424 1420 1439 1435 1443 1443 1422 1424 1416 1408 1405 1405 1406 1407 1408 1409 1413 1416 1419 1421 1427 1432 1434 1437 1441 1446 1449 1452 1456 1459 1463 1468 1473 1477 1479 1484 1489 1494
1427 1424 1421 1419 1420 1418 1424 1424 1421 1417 1424 1429 1429 1418 1406 1405 1406 1406 1405 1406 1406 1408 1410 1413 1416 1420 1422 1427 1431 1431 1434 1439 1443 1446 1450 1454 1457 1462 1467 1470 1474 1477 1481 1484
1426 1425 1420 1414 1415 1411 1410 1414 1416 1424 1426 1425 1423 1416 1403 1407 1408 1409 1407 1406 1406 1407 1407 1409 1412 1416 1418 1420 1424 1426 1429 1432 1435 1440 1444 1447 1451 1455 1458 1460 1464 1469 1470 1474
1428 1420 1426 1421 1416 1416 1414 1413 1416 1413 1416 1421 1429 1419 1406 1407 1406 1406 1405 1405 1406 1406 1407 1407 1409 1412 1413 1415 1417 1419 1421 1424 1429 1432 1435 1439 1441 1444 1446 1449 1454 1460 1464 1467
1430 1422 1417 1417 1408 1410 1419 1417 1419 1418 1422 1421 1418 1416 1410 1409 1408 1406 1406 1407 1406 1405 1407 1408 1407 1406 1408 1410 1410 1411 1414 1418 1423 1425 1427 1428 1431 1433 1436 1442 1446 1450 1453 1458
1432 1430 1423 1419 1419 1419 1419 1418 1417 1418 1417 1421 1412 1415 1409 1408 1414 1413 1409 1405 1405 1403 1403 1404 1404 1405 1404 1404 1405 1405 1407 1409 1412 1416 1418 1417 1421 1426 1431 1435 1438 1443 1446 1448
1435 1428 1428 1424 1421 1422 1423 1418 1416 1415 1413 1413 1411 1411 1410 1411 1411 1411 1409 1406 1403 1403 1401 1401 1400 1399 1399 1399 1398 1398 1399 1400 1402 1405 1405 1411 1415 1417 1419 1424 1428 1433 1436 1439
1438 1431 1429 1427 1424 1425 1426 1415 1412 1411 1409 1409 1413 1407 1411 1410 1408 1409 1408 1407 1405 1402 1397 1396 1396 1395 1394 1394 1395 1394 1393 1395 1395 1397 1399 1402 1405 1407 1410 1414 1418 1421 1424 1429
1439 1437 1434 1428 1434 1432 1408 1407 1407 1409 1408 1408 1410 1412 1413 1413 1411 1410 1411 1409 1405 1402 1397 1392 1389 1387 1389 1388 1387 1386 1390 1388 1387 1388 1391 1394 1396 1399 1403 1406 1408 1412 1415 1417
1440 1438 1434 1431 1424 1412 1407 1409 1412 1410 1408 1413 1412 1413 1413 1413 1411 1404 1409 1410 1407 1403 1398 1393 1389 1386 1381 1380 1381 1381 1380 1382 1381 1380 1381 1385 1388 1390 1394 1397 1399 1403 1406 1410
1435 1437 1435 1435 1426 1423 1406 1410 1410 1410 1412 1415 1415 1414 1413 1413 1410 1399 1409 1408 1406 1402 1398 1390 1384 1379 1376 1374 1373 1373 1372 1373 1373 1374 1375 1378 1381 1382 1385 1389 1392 1394 1397 1400
1433 1433 1432 1431 1423 1413 1409 1411 1411 1414 1419 1418 1418 1416 1414 1413 1414 1412 1410 1408 1405 1402 1397 1388 1380 1375 1370 1368 1368 1367 1369 1366 1367 1368 1369 1372 1375 1379 1381 1381 1383 1387 1389 1392
1419 1421 1427 1425 1424 1422 1412 1410 1411 1419 1419 1419 1419 1418 1416 1414 1413 1412 1409 1405 1401 1398 1394 1389 1378 1373 1369 1366 1364 1364 1362 1357 1359 1360 1361 1366 1368 1370 1374 1376 1377 1380 1383 1386
1413 1409 1412 1410 1408 1413 1414 1416 1420 1422 1422 1423 1422 1419 1417 1414 1413 1411 1407 1403 1398 1393 1395 1391 1380 1374 1370 1366 1366 1362 1361 1357 1359 1360 1358 1362 1366 1367 1369 1373 1373 1376 1380 1381
1406 1409 1408 1410 1406 1411 1416 1419 1421 1423 1424 1423 1421 1418 1416 1414 1412 1410 1406 1401 1396 1391 1390 1392 1385 1375 1375 1370 1367 1365 1363 1360 1361 1361 1359 1363 1365 1365 1366 1372 1375 1373 1374 1378
1404 1407 1405 1406 1406 1413 1419 1421 1422 1422 1422 1422 1420 1418 1415 1414 1413 1411 1407 1402 1395 1391 1391 1393 1385 1378 1379 1377 1371 1366 1367 1365 1362 1362 1363 1366 1368 1368 1368 1371 1376 1377 1373 1374
1406 1404 1407 1406 1413 1416 1417 1420 1420 1419 1418 1416 1415 1414 1413 1411 1409 1407 1404 1403 1399 1388 1395 1395 1390 1382 1378 1380 1374 1371 1368 1367 1364 1365 1368 1369 1371 1374 1372 1369 1374 1383 1378 1376